Showing default

BEIDOU 1D, 30323

Orbit data source: Space-Track

BEIDOU 1D, 30323 is a payload satellite owned by CNSA (CN) in GEO that was launched on Fri, 02 Feb 2007 UTC via a CHANG ZHENG 3A launch vehicle from the Xichang Space Center, China (XSC). Payload-class satellites include a variety of spacecraft equipped with specific instruments for various scientific and technological missions. These include communications satellites like Starlink; space stations such as the ISS; scientific satellites like the Hubble; Earth observation satellites from companies like Planet Labs, Umbra, and HawkEye 360; GPS; miniature CubeSats for education and research; and military/defense satellites.

Loading next visibility...
Identifier
30323, 2007-003A
Orbit
GEO
Last TLE update
19 hours ago
Origin
Manufacturer
CAST
Mission
Non-operational Defense Navigation
Bus & Motor
DFH-3, FY-25
Mass
2,299 kg wet, 1,300 kg dry
Launch date (UTC)
2007-02-02 (18 years ago)
Launch vehicle
CHANG ZHENG 3A
Launch site
Xichang Space Center, China (XSC)
Object type
Payload
Rocket body
Debris
Shape & HBR
Box + 2 Pan, 18 m
Radar Cross Section
13.998 m², Large (>1 m²)

Expand to show TLE details & history

TLE from 19 hours ago
0 BEIDOU 1D
1 30323U 07003A   25181.62316764 -.00000089  00000-0  00000-0 0  9991
2 30323   9.0626  60.6236 0052829 264.6808  96.6215  0.99153979 67227
Epoch: 2025-06-30T14:57Z
TLE epoch observation values (Epoch: 2025-06-30T14:57:21.684Z)
Latitude
0.3068°
Longitude
-80.75448°
Altitude
36,130.539 km
Speed
3.061 km/s
True Right ascension
04h 10m 03s
True Declination
0° 18' 23"
Sunlit
Object was in daylight at epoch
Visualization orbit readout
Latitude
-8.82954°
Longitude
-158.84191°
Altitude
35,892.004 km
Speed
3.078 km/s
Apparent Right ascension
23h 08m 30s
Apparent Declination
-15° 49' 20"
Sunlit
Object is in daylight
Visualization observer readout
Local Sidereal Time
21:33:49
Azimuth
153.495° SSE
Elevation
30.059°
Doppler factor
1
Orbital elements
Apogee altitude
36,328.349 km
Perigee altitude
35,879.493 km
Semi-major axis
42,482.058 km
Eccentricity
0.00528
Inclination
9.0626°
RAAN
60.6236°
Arg. of periapsis
264.6808°
True anomaly
Unknown
Mean anomaly
96.6215°
Eccentric anomaly
Unknown
Mean motion
0.24788 °/min
Orbital period
1,452.34 mins
BSTAR
0
Loading historical data...
30323 neighbors
Loading maneuver chart data...
Loading SW <> Apogee altitude chart data...
Loading historical data...
Loading historical data...
Loading historical data...
Loading historical data...
Loading historical data...
Loading historical data...
Loading historical data...

BEIDOU 1D Visibility forecast

Observer location: undefined°, undefined°

Span
Click to sort rows by Start time (UTC) header in descending order
Start Az.
Max El. time (UTC)
Max El. Az.
Max El.
End time (UTC)
End Az.
1440 mins2025-07-01 09:55:27.865Z153.503° SSE2025-07-01 21:18:27.865Z146.625° SSE37.209°2025-07-02 09:55:27.865Z158.427° S
|